When you browse on this site, cookies collect data to enhance your experience and personalize the content and advertising you see.
Visit our Privacy Policy to learn more. By continuing to use the site, you agree to this use of cookies and data.
  • en Suisse
  • Liste des pays
  • À 7 jours
  • Température de l'eau
  • Carte satellitaire
  • Carte météo
  • Widgets météo
  • user-avatar
    Se connecter

    Météo par heure à Guangzhou

    Ce jour, 21 Janvier, Lundi

    Heure Température Précipitation Vent Pression Humidité
    00:00 +16°C° 0 mm 5 m/s 766 mmHg 60%
    01:00 +16°C° 0 mm 5 m/s 766 mmHg 59%
    02:00 +15°C° 0 mm 4 m/s 767 mmHg 61%
    03:00 +15°C° 0.1 mm 4 m/s 767 mmHg 60%
    04:00 +14°C° 0.1 mm 4 m/s 767 mmHg 60%
    05:00 +14°C° 0.1 mm 5 m/s 767 mmHg 59%
    06:00 +14°C° 0 mm 5 m/s 767 mmHg 58%
    07:00 +13°C° 0 mm 5 m/s 767 mmHg 57%
    08:00 +13°C° 0 mm 4 m/s 768 mmHg 56%
    09:00 +14°C° 0 mm 4 m/s 768 mmHg 52%
    10:00 +15°C° 0 mm 5 m/s 768 mmHg 48%
    11:00 +16°C° 0 mm 5 m/s 768 mmHg 44%
    12:00 +18°C° 0 mm 4 m/s 767 mmHg 42%
    13:00 +20°C° 0 mm 4 m/s 766 mmHg 39%
    14:00 +20°C° 0 mm 4 m/s 766 mmHg 37%
    15:00 +20°C° 0 mm 4 m/s 766 mmHg 37%
    16:00 +20°C° 0 mm 4 m/s 766 mmHg 38%
    17:00 +20°C° 0 mm 4 m/s 765 mmHg 38%
    18:00 +20°C° 0 mm 4 m/s 766 mmHg 40%
    19:00 +19°C° 0 mm 4 m/s 766 mmHg 41%
    20:00 +19°C° 0 mm 4 m/s 766 mmHg 43%
    21:00 +18°C° 0 mm 4 m/s 767 mmHg 44%
    22:00 +18°C° 0 mm 4 m/s 767 mmHg 45%
    23:00 +17°C° 0 mm 4 m/s 767 mmHg 45%

    Demain, 22 Janvier, Mardi

    Heure Température Précipitation Vent Pression Humidité
    00:00 +17°C° 0 mm 4 m/s 767 mmHg 46%
    01:00 +15°C° 0 mm 4 m/s 767 mmHg 47%
    02:00 +15°C° 0 mm 4 m/s 767 mmHg 48%
    03:00 +14°C° 0 mm 4 m/s 767 mmHg 49%
    04:00 +14°C° 0 mm 4 m/s 767 mmHg 50%
    05:00 +13°C° 0 mm 4 m/s 767 mmHg 50%
    06:00 +13°C° 0 mm 3 m/s 767 mmHg 51%
    07:00 +13°C° 0 mm 3 m/s 767 mmHg 51%
    08:00 +12°C° 0 mm 3 m/s 768 mmHg 52%
    09:00 +14°C° 0 mm 3 m/s 768 mmHg 48%
    10:00 +15°C° 0 mm 4 m/s 768 mmHg 44%
    11:00 +17°C° 0 mm 4 m/s 768 mmHg 41%
    12:00 +18°C° 0 mm 4 m/s 767 mmHg 37%
    13:00 +20°C° 0 mm 4 m/s 766 mmHg 34%
    14:00 +21°C° 0 mm 4 m/s 766 mmHg 30%
    15:00 +21°C° 0 mm 4 m/s 765 mmHg 29%
    16:00 +21°C° 0 mm 4 m/s 765 mmHg 29%
    17:00 +22°C° 0 mm 4 m/s 765 mmHg 28%
    18:00 +21°C° 0 mm 3 m/s 765 mmHg 30%
    19:00 +20°C° 0 mm 3 m/s 765 mmHg 31%
    20:00 +20°C° 0 mm 3 m/s 765 mmHg 33%
    21:00 +19°C° 0 mm 3 m/s 766 mmHg 34%
    22:00 +19°C° 0 mm 3 m/s 766 mmHg 35%
    23:00 +18°C° 0 mm 2 m/s 766 mmHg 36%

    Après-demain, 23 Janvier, Mercredi

    Heure Température Précipitation Vent Pression Humidité
    00:00 +18°C° 0 mm 2 m/s 766 mmHg 38%
    01:00 +17°C° 0 mm 2 m/s 766 mmHg 39%
    02:00 +16°C° 0 mm 2 m/s 766 mmHg 40%
    03:00 +16°C° 0 mm 2 m/s 766 mmHg 40%
    04:00 +15°C° 0 mm 2 m/s 766 mmHg 41%
    05:00 +15°C° 0 mm 2 m/s 765 mmHg 41%
    06:00 +15°C° 0 mm 2 m/s 766 mmHg 41%
    07:00 +15°C° 0 mm 2 m/s 767 mmHg 41%
    08:00 +14°C° 0 mm 2 m/s 767 mmHg 41%
    09:00 +16°C° 0 mm 2 m/s 767 mmHg 36%
    10:00 +17°C° 0 mm 2 m/s 767 mmHg 31%
    11:00 +18°C° 0 mm 2 m/s 767 mmHg 27%
    12:00 +20°C° 0 mm 2 m/s 766 mmHg 24%
    13:00 +22°C° 0 mm 1 m/s 765 mmHg 22%
    14:00 +23°C° 0 mm 1 m/s 764 mmHg 20%
    15:00 +23°C° 0 mm 1 m/s 764 mmHg 19%
    16:00 +23°C° 0 mm 1 m/s 764 mmHg 18%
    17:00 +24°C° 0 mm 1 m/s 763 mmHg 18%
    18:00 +23°C° 0 mm 1 m/s 764 mmHg 18%
    19:00 +23°C° 0 mm 1 m/s 764 mmHg 19%
    20:00 +20°C° 0 mm 0 m/s 764 mmHg 20%
    21:00 +22°C° 0 mm 1 m/s 765 mmHg 21%
    22:00 +21°C° 0 mm 1 m/s 765 mmHg 22%
    23:00 +21°C° 0 mm 1 m/s 765 mmHg 23%

    24 Janvier, Jeudi

    Heure Température Précipitation Vent Pression Humidité
    00:00 +20°C° 0 mm 1 m/s 765 mmHg 25%
    01:00 +20°C° 0 mm 1 m/s 765 mmHg 27%
    02:00 +19°C° 0 mm 1 m/s 765 mmHg 29%
    03:00 +19°C° 0 mm 1 m/s 765 mmHg 31%
    04:00 +19°C° 0 mm 1 m/s 764 mmHg 33%
    05:00 +18°C° 0 mm 1 m/s 764 mmHg 35%
    06:00 +18°C° 0 mm 1 m/s 765 mmHg 37%
    07:00 +18°C° 0 mm 1 m/s 765 mmHg 39%
    08:00 +18°C° 0 mm 1 m/s 766 mmHg 41%
    09:00 +19°C° 0 mm 1 m/s 766 mmHg 43%
    10:00 +20°C° 0 mm 1 m/s 766 mmHg 45%
    11:00 +21°C° 0 mm 1 m/s 767 mmHg 47%
    12:00 +22°C° 0 mm 1 m/s 766 mmHg 43%
    13:00 +23°C° 0 mm 1 m/s 765 mmHg 39%
    14:00 +24°C° 0 mm 1 m/s 764 mmHg 35%
    15:00 +25°C° 0 mm 1 m/s 764 mmHg 34%
    16:00 +25°C° 0 mm 1 m/s 763 mmHg 33%
    17:00 +25°C° 0 mm 1 m/s 763 mmHg 32%
    18:00 +24°C° 0 mm 2 m/s 763 mmHg 34%
    19:00 +24°C° 0 mm 2 m/s 764 mmHg 36%
    20:00 +23°C° 0 mm 2 m/s 764 mmHg 37%
    21:00 +23°C° 0 mm 2 m/s 765 mmHg 42%
    22:00 +21°C° 0 mm 2 m/s 765 mmHg 46%
    23:00 +21°C° 0 mm 2 m/s 765 mmHg 50%

    25 Janvier, Vendredi

    Heure Température Précipitation Vent Pression Humidité
    00:00 +20°C° 0 mm 2 m/s 765 mmHg 53%
    01:00 +20°C° 0 mm 2 m/s 765 mmHg 56%
    02:00 +20°C° 0 mm 1 m/s 765 mmHg 59%
    03:00 +20°C° 0 mm 1 m/s 765 mmHg 61%
    04:00 +20°C° 0 mm 1 m/s 765 mmHg 62%
    05:00 +17°C° 0 mm 0 m/s 764 mmHg 64%
    06:00 +17°C° 0 mm 0 m/s 765 mmHg 64%
    07:00 +17°C° 0 mm 0 m/s 766 mmHg 64%
    08:00 +17°C° 0 mm 0 m/s 766 mmHg 64%
    09:00 +18°C° 0 mm 0 m/s 766 mmHg 59%
    10:00 +20°C° 0 mm 0 m/s 767 mmHg 54%
    11:00 +21°C° 0 mm 0 m/s 767 mmHg 49%
    12:00 +22°C° 0 mm 0 m/s 766 mmHg 45%
    13:00 +23°C° 0 mm 0 m/s 765 mmHg 41%
    14:00 +24°C° 0 mm 0 m/s 765 mmHg 37%
    15:00 +26°C° 0 mm 1 m/s 764 mmHg 36%
    16:00 +26°C° 0 mm 1 m/s 764 mmHg 35%
    17:00 +26°C° 0 mm 1 m/s 764 mmHg 34%
    18:00 +26°C° 0 mm 1 m/s 764 mmHg 35%
    19:00 +24°C° 0 mm 0 m/s 765 mmHg 35%
    20:00 +23°C° 0 mm 0 m/s 766 mmHg 36%
    21:00 +23°C° 0 mm 0 m/s 766 mmHg 38%
    22:00 +22°C° 0 mm 0 m/s 766 mmHg 39%
    23:00 +24°C° 0 mm 1 m/s 766 mmHg 41%

    26 Janvier, Samedi

    Heure Température Précipitation Vent Pression Humidité
    00:00 +23°C° 0 mm 1 m/s 766 mmHg 43%
    01:00 +23°C° 0 mm 1 m/s 766 mmHg 46%
    02:00 +22°C° 0 mm 1 m/s 766 mmHg 48%
    03:00 +22°C° 0 mm 1 m/s 766 mmHg 50%
    04:00 +21°C° 0 mm 1 m/s 766 mmHg 51%
    05:00 +21°C° 0 mm 1 m/s 766 mmHg 53%
    06:00 +21°C° 0 mm 1 m/s 767 mmHg 52%
    07:00 +20°C° 0 mm 1 m/s 767 mmHg 52%
    08:00 +19°C° 0 mm 2 m/s 768 mmHg 51%
    09:00 +20°C° 0 mm 2 m/s 768 mmHg 46%
    10:00 +21°C° 0 mm 2 m/s 768 mmHg 41%
    11:00 +24°C° 0 mm 2 m/s 768 mmHg 35%
    12:00 +25°C° 0 mm 2 m/s 768 mmHg 33%
    13:00 +25°C° 0 mm 2 m/s 767 mmHg 31%
    14:00 +26°C° 0 mm 2 m/s 766 mmHg 29%
    15:00 +27°C° 0 mm 2 m/s 766 mmHg 29%
    16:00 +27°C° 0 mm 2 m/s 766 mmHg 29%
    17:00 +27°C° 0 mm 2 m/s 765 mmHg 28%
    18:00 +27°C° 0 mm 2 m/s 766 mmHg 30%
    19:00 +26°C° 0 mm 2 m/s 766 mmHg 32%
    20:00 +25°C° 0 mm 2 m/s 767 mmHg 34%
    21:00 +24°C° 0 mm 2 m/s 767 mmHg 39%
    22:00 +24°C° 0 mm 2 m/s 767 mmHg 44%
    23:00 +23°C° 0 mm 2 m/s 768 mmHg 49%
    Voir plus